SNG2490 ZSSS-ZJSY

Flight info

Callsign SNG2490
Flight time N/A
Altitude 32100
Route NXD W131 AKDIM A470 DUBGO W134 ELNEX A599 PLT W19 NOMAR W18 NLG W23 ZUH R200 BIGRO G221 WL
Aircraft A320/M-SDE3FGIJ1KRWXY/LB1

Departure

Time 2026-05-07 08:54
Airport Shanghai Hongqiao International Airport (ZSSS)

Arrival

Time N/A
Airport Sanya Phoenix International Airport (ZJSY)
Time Latitude Longitude Altitude Speed Heading
2026-05-07 08:10 31.19387 121.32870 19 ft 0 kts 277°
2026-05-07 08:41 31.19386 121.32882 20 ft 2 kts 274°
2026-05-07 08:42 31.19384 121.32901 21 ft 2 kts 275°
2026-05-07 08:42 31.19382 121.32920 22 ft 2 kts 277°
2026-05-07 08:42 31.19379 121.32940 22 ft 2 kts 278°
2026-05-07 08:42 31.19377 121.32959 20 ft 2 kts 275°
2026-05-07 08:43 31.19380 121.32977 20 ft 2 kts 239°
2026-05-07 08:43 31.19389 121.32993 21 ft 2 kts 188°
2026-05-07 08:43 31.19404 121.32993 21 ft 1 kts 174°
2026-05-07 08:43 31.19408 121.32993 21 ft 0 kts 174°
2026-05-07 08:48 31.19402 121.32993 21 ft 2 kts 175°
2026-05-07 08:48 31.19377 121.32995 21 ft 6 kts 177°
2026-05-07 08:48 31.19340 121.32997 19 ft 6 kts 177°
2026-05-07 08:49 31.19264 121.33001 19 ft 12 kts 178°
2026-05-07 08:49 31.19186 121.33006 19 ft 10 kts 176°
2026-05-07 08:49 31.19121 121.33009 20 ft 8 kts 178°
2026-05-07 08:49 31.19068 121.33012 19 ft 7 kts 177°
2026-05-07 08:50 31.18981 121.33016 19 ft 18 kts 178°
2026-05-07 08:50 31.18862 121.33023 19 ft 16 kts 176°
2026-05-07 08:50 31.18756 121.33029 19 ft 14 kts 177°
2026-05-07 08:50 31.18660 121.33035 19 ft 15 kts 177°
2026-05-07 08:51 31.18545 121.33041 19 ft 16 kts 178°
2026-05-07 08:51 31.18440 121.33046 19 ft 13 kts 178°
2026-05-07 08:51 31.18382 121.33048 19 ft 6 kts 175°
2026-05-07 08:51 31.18350 121.33063 21 ft 5 kts 135°
2026-05-07 08:52 31.18338 121.33102 19 ft 4 kts 101°
2026-05-07 08:52 31.18340 121.33159 19 ft 12 kts 88°
2026-05-07 08:52 31.18346 121.33254 19 ft 12 kts 80°
2026-05-07 08:52 31.18398 121.33318 21 ft 11 kts 14°
2026-05-07 08:53 31.18477 121.33319 20 ft 12 kts 358°
2026-05-07 08:53 31.18561 121.33314 23 ft 15 kts 356°
2026-05-07 08:53 31.18869 121.33298 20 ft 78 kts 358°
2026-05-07 08:53 31.19606 121.33260 17 ft 133 kts 357°
2026-05-07 08:54 31.20672 121.33203 145 ft 163 kts 358°
2026-05-07 08:54 31.21791 121.33149 795 ft 160 kts 352°
2026-05-07 08:54 31.22761 121.32563 1413 ft 163 kts 309°
2026-05-07 08:54 31.23375 121.31416 1866 ft 174 kts 304°
2026-05-07 08:55 31.24032 121.30130 2099 ft 196 kts 303°
2026-05-07 08:55 31.24766 121.28699 2338 ft 219 kts 303°
2026-05-07 08:55 31.25555 121.27161 2971 ft 222 kts 301°
2026-05-07 08:55 31.26356 121.25603 3705 ft 224 kts 302°
2026-05-07 08:56 31.27152 121.24027 4441 ft 226 kts 296°
2026-05-07 08:56 31.27503 121.22221 4838 ft 232 kts 266°
2026-05-07 08:56 31.26943 121.20401 5050 ft 254 kts 237°
2026-05-07 08:56 31.25868 121.18672 5560 ft 268 kts 235°
2026-05-07 08:57 31.24752 121.16915 6313 ft 271 kts 235°
2026-05-07 08:57 31.23620 121.15136 7080 ft 274 kts 235°
2026-05-07 08:57 31.22340 121.13470 7850 ft 279 kts 220°
2026-05-07 08:57 31.20642 121.12340 8592 ft 286 kts 201°
2026-05-07 08:58 31.18668 121.11930 9348 ft 293 kts 182°
2026-05-07 08:58 31.16602 121.12016 9703 ft 297 kts 180°
2026-05-07 08:58 31.14537 121.12132 9794 ft 297 kts 180°
2026-05-07 08:58 31.12464 121.12256 9803 ft 298 kts 179°
2026-05-07 08:59 31.10401 121.12198 9805 ft 295 kts 193°
2026-05-07 08:59 31.08489 121.11401 9803 ft 290 kts 213°
2026-05-07 08:59 31.06949 121.09918 9888 ft 289 kts 233°
2026-05-07 08:59 31.05899 121.07884 10272 ft 302 kts 251°
2026-05-07 09:00 31.05269 121.05502 10434 ft 322 kts 255°
2026-05-07 09:00 31.04642 121.02949 10944 ft 330 kts 255°
2026-05-07 09:00 31.04006 121.00351 11651 ft 332 kts 255°
2026-05-07 09:00 31.03370 120.97763 12384 ft 333 kts 254°
2026-05-07 09:01 31.02728 120.95169 13142 ft 333 kts 254°
2026-05-07 09:01 31.02084 120.92573 13857 ft 333 kts 254°
2026-05-07 09:01 31.01437 120.89967 14443 ft 335 kts 254°
2026-05-07 09:01 31.00788 120.87354 15005 ft 337 kts 255°
2026-05-07 09:02 31.00140 120.84752 15537 ft 339 kts 255°
2026-05-07 09:02 30.99476 120.82092 16088 ft 342 kts 255°
2026-05-07 09:02 30.98811 120.79424 16611 ft 345 kts 255°
2026-05-07 09:02 30.98138 120.76725 17128 ft 348 kts 255°
2026-05-07 09:03 30.97456 120.73999 17649 ft 350 kts 255°
2026-05-07 09:03 30.96780 120.71296 18156 ft 353 kts 255°
2026-05-07 09:03 30.96090 120.68539 18613 ft 355 kts 255°
2026-05-07 09:03 30.95392 120.65760 19073 ft 357 kts 255°
2026-05-07 09:04 30.94692 120.62973 19547 ft 359 kts 255°
2026-05-07 09:04 30.93988 120.60172 20026 ft 361 kts 255°
2026-05-07 09:04 30.93282 120.57361 20496 ft 363 kts 255°
2026-05-07 09:04 30.92578 120.54563 20944 ft 365 kts 255°
2026-05-07 09:05 30.91860 120.51713 21398 ft 367 kts 255°
2026-05-07 09:05 30.91139 120.48849 21846 ft 369 kts 255°
2026-05-07 09:05 30.90319 120.45999 22278 ft 372 kts 248°
2026-05-07 09:05 30.89026 120.43370 22691 ft 378 kts 236°
2026-05-07 09:06 30.87266 120.41113 23090 ft 385 kts 225°
2026-05-07 09:06 30.85105 120.39227 23481 ft 390 kts 219°
2026-05-07 09:06 30.82878 120.37400 23817 ft 392 kts 219°
2026-05-07 09:06 30.80639 120.35560 24142 ft 394 kts 220°
2026-05-07 09:07 30.78415 120.33731 24458 ft 396 kts 220°
2026-05-07 09:07 30.76156 120.31870 24767 ft 398 kts 220°